Regional Weather Roundup
Issued by NWS

Home | Current Version | Previous Version | Graphics & Text | Print | Product List | Glossary On
Versions: 1 2 3 4 5 6 7 8 9 10 11 12 13 14 15 16 17 18 19 20 21 22 23 24 25 26 27 28 29 30 31 32 33 34 35 36 37 38 39 40 41 42 43 44 45 46 47 48 49 50
709
ASUS45 KPSR 232110
RWRAZ

ARIZONA HOURLY REGIONAL WEATHER ROUNDUP
NATIONAL WEATHER SERVICE PHOENIX AZ
200 PM MST TUE JAN 23 2018

NOTE: FAIR INDICATES FEW OR NO CLOUDS BELOW 12,000 FEET WITH NO
SIGNIFICANT WEATHER AND/OR OBSTRUCTIONS TO VISIBILITY.

AZZ001>003-036-232200-
NORTHWEST ARIZONA

CITY           SKY/WX    TMP DP  RH WIND       PRES   REMARKS
BULLHEAD CITY  SUNNY     64  21  19 N22G33    30.19F
KINGMAN        SUNNY    N/A N/A N/A N14       30.22F
$$

AZZ004>008-015-016-018-232200-
NORTH CENTRAL ARIZONA

CITY           SKY/WX    TMP DP  RH WIND       PRES   REMARKS
GRAND CANYON   SUNNY     39  16  39 NE14      30.28F WCI  31
WILLIAMS       SUNNY     45  10  24 VRB5      30.22F
PRESCOTT       SUNNY     52   8  17 N8        30.21F
FLAGSTAFF      SUNNY     36  12  37 E16G23    30.25F WCI  26
PAYSON         SUNNY     48   9  20 NE14      30.20F
PAGE           SUNNY     44  15  31 CALM      30.31F
$$

AZZ009>014-017-232200-
NORTHEAST ARIZONA

CITY           SKY/WX    TMP DP  RH WIND       PRES   REMARKS
WINSLOW        SUNNY     42   8  24 NE5       30.30F
SAINT JOHNS    SUNNY     42  10  27 NE5       30.26F
WINDOW ROCK    SUNNY     42  13  30 VRB5      30.26F
SHOW LOW       SUNNY     36  16  44 N13       30.27F WCI  27
$$

AZZ540-542>544-546-548-232200-
GREATER PHOENIX AREA

CITY           SKY/WX    TMP DP  RH WIND       PRES   REMARKS
PHOENIX        SUNNY     67  11  11 N5        30.11F
BUCKEYE        SUNNY     64  12  13 SE5       30.14F
GLENDALE       SUNNY     66   7   9 CALM      30.13F
LUKE AFB       SUNNY     68  11  11 CALM      30.10F
DEER VALLEY    SUNNY     68   8   9 CALM      30.11F
SCOTTSDALE     SUNNY     65  14  14 W5        30.13F
MESA-GATEWAY   SUNNY     66   9  10 CALM      30.12F
CHANDLER       SUNNY     66   9  10 NE9       30.11F
$$

AZZ539-553-232200-
SOUTHWEST MARICOPA COUNTY AND PINAL COUNTY

CITY           SKY/WX    TMP DP  RH WIND       PRES   REMARKS
CASA GRANDE    NOT AVBL
GILA BEND      SUNNY     65  11  12 N7        30.11F
$$

AZZ503-504-507>509-232200-
SOUTHEAST ARIZONA

CITY           SKY/WX    TMP DP  RH WIND       PRES   REMARKS
TUCSON         SUNNY     64   8  11 N9        30.09F
DAVIS-MONTHAN  SUNNY     64   8  11 N8        30.08F
RYAN FIELD     SUNNY     63  12  14 NW13      30.10F
NOGALES        SUNNY     65  -5   6 N17       30.06F
SIERRA VISTA   SUNNY     57  -6   7 E3        30.13F
DOUGLAS        SUNNY     58   1  10 E12       30.12F
SAFFORD        SUNNY     56   5  13 S5        30.16F
$$

AZZ532-232200-
SOUTHWEST ARIZONA

CITY           SKY/WX    TMP DP  RH WIND       PRES   REMARKS
YUMA           SUNNY     69  20  15 N8        30.14F
$$

CAZ041-043-047-048-061-525>527-560>570-232200-
SOUTHERN CALIFORNIA

CITY           SKY/WX    TMP DP  RH WIND       PRES   REMARKS
DOWNTOWN L.A.  SUNNY     72  17  12 CALM      30.11F
L.A. AIRPORT   MOSUNNY   74  21  13 CALM      30.11F
SAN DIEGO      SUNNY     68  35  29 NW7       30.10F
BURBANK        SUNNY     71  23  16 MISG      30.12F
ONTARIO        MOSUNNY   72  23  16 NW8       30.11F
RIVERSIDE      SUNNY     73  25  16 VRB7      30.12F
PALM SPRINGS   SUNNY     75  21  13 N5        30.17F
EL CENTRO NAS  SUNNY     72  16  12 N12       30.16F
IMPERIAL       SUNNY     72  21  14 N9        30.15F
BLYTHE         SUNNY     70  19  14 N15       30.16F
NEEDLES        SUNNY     68  20  16 N17       30.19F
$$

NVZ020-UTZ003-232200-
SOUTHERN NEVADA-UTAH

CITY           SKY/WX    TMP DP  RH WIND       PRES   REMARKS
LAS VEGAS      SUNNY     58  26  29 N5        30.25F
SALT LAKE CITY MOSUNNY   40  24  53 CALM      30.33F
$$

NMZ009-TXZ055-232200-
NEW MEXICO-WEST TEXAS

CITY           SKY/WX    TMP DP  RH WIND       PRES   REMARKS
ALBUQUERQUE    MOSUNNY   42  10  27 W6        30.25F
EL PASO        SUNNY     55   3  12 N6        30.17F
$$


........................KEY........................
SKY/WX - SKY CONDITION/WEATHER
TMP    - TEMPERATURE IN FAHRENHEIT
DP     - DEW POINT IN FAHRENHEIT
RH     - RELATIVE HUMIDITY IN PERCENT
WIND   - DIRECTION AND SPEED IN MILES PER HOUR (MPH)
VRB    - VARIABLE WIND DIRECTION
PRES   - MEAN SEA LEVEL PRESSURE IN INCHES OF MERCURY
         F - FALLING PRESSURE   R - RISING PRESSURE
         S - STEADY PRESSURE
VSB    - VISIBILITY IN MILES
HX     - HEAT INDEX IN FAHRENHEIT
WCI    - WIND CHILL INDEX IN FAHRENHEIT
TC     - TEMPERATURE IN CELSIUS WHICH IS ALSO KNOWN AS
         TEMPERATURE IN CENTIGRADE
AFB    - AIR FORCE BASE
         LUKE AFB IS LUKE AIR FORCE BASE
         DAVIS-MONTHAN IS DAVIS-MONTHAN AIR FORCE BASE
NAS    - NAVAL AIR STATION
         EL CENTRO NAS IS EL CENTRO NAVAL AIR STATION
N/A    - NOT AVAILABLE





USA.gov is the U.S. government's official web portal to all federal, state and local government web resources and services.